Location: Dumpton Point
(51.3500°N, 1.4433°E)
Time: 06:42:20
(UTC+00:00)

Envisat - Visible Passes

Search period start: 04 March 2021 00:00
Search period end: 14 March 2021 00:00
Orbit: 764 x 766 km, 98.1° (Epoch: 03 March)

Date Brightness Start Highest point End Pass type
(mag) Time Alt. Az. Time Alt. Az. Time Alt. Az.
04 Mar 5.9 04:23:24 10° NE 04:26:50 18° E 04:30:14 10° SE visible
05 Mar 3.8 05:24:34 10° NNE 05:29:35 55° E 05:34:34 10° S visible
05 Mar 6.7 18:27:53 10° W 18:29:22 11° W 18:30:52 10° WNW visible
06 Mar 5.2 04:48:08 10° NNE 04:52:31 28° E 04:56:52 10° SSE visible
07 Mar 6.0 04:12:29 10° NE 04:15:15 15° E 04:18:00 10° ESE visible
07 Mar 3.1 05:49:54 10° NNE 05:55:02 88° ESE 06:00:08 10° SSW visible
08 Mar 4.3 05:13:12 10° NNE 05:18:06 45° E 05:22:58 10° S visible
09 Mar 5.5 04:36:56 10° NE 04:40:58 23° E 04:45:00 10° SE visible
10 Mar 6.2 04:01:54 10° ENE 04:03:38 12° E 04:05:23 10° ESE visible
10 Mar 3.4 05:38:29 10° NNE 05:43:36 73° ESE 05:48:40 10° S visible
11 Mar 4.7 05:01:53 10° NNE 05:06:36 37° E 05:11:17 10° SSE visible
12 Mar 5.8 04:25:48 10° NE 04:29:25 19° E 04:33:00 10° SE visible
13 Mar 3.7 05:27:05 10° NNE 05:32:08 59° E 05:37:09 10° S visible
13 Mar 6.8 18:31:16 10° W 18:31:58 10° W 18:32:40 10° WNW visible
